Location: Newark
(45.9167°N, 5.5000°E)
Time: 13:02:42
(UTC+00:00)

N. Korean satellite - Pass Details

Date: 31 January 2020
Orbit: 456 x 505 km, 97.2° (Epoch: 24 February)

Event Time Altitude Azimuth Distance (km) Brightness Sun altitude
Rises 06:16:12 0° 1° (N) 2,559 10.1 -8.3°
Reaches altitude 10° 06:18:28 10° 348° (NNW) 1,683 9.0 -7.9°
Maximum altitude 06:21:31 26° 291° (WNW) 1,002 7.6 -7.4°
Drops below altitude 10° 06:24:36 10° 233° (SW) 1,693 9.0 -6.9°
Sets 06:26:53 0° 221° (SW) 2,578 10.0 -6.5°
